ANZ699 NZAA-NZNV

Flight info

Callsign ANZ699
Flight time 1h 57m
Altitude 36000
Route 3701S17446E DCT LAKAR Y628 UPNIX Y496 DUKOP Y676 NV
Aircraft A320/M-SDE3FGHIRWY/LB1

Departure

Time 2026-04-25 01:15
Airport Auckland International Airport (NZAA)

Arrival

Time 2026-04-25 03:12
Airport Invercargill Airport (NZNV)
Time Latitude Longitude Altitude Speed Heading
2026-04-25 01:08 -37.00806 174.79050 32 ft 0 kts 71°
2026-04-25 01:09 -37.00805 174.79059 32 ft 0 kts 75°
2026-04-25 01:10 -37.00804 174.79063 32 ft 0 kts 86°
2026-04-25 01:10 -37.00804 174.79071 32 ft 2 kts 92°
2026-04-25 01:10 -37.00829 174.79109 32 ft 8 kts 151°
2026-04-25 01:10 -37.00858 174.79170 31 ft 9 kts 86°
2026-04-25 01:11 -37.00840 174.79257 30 ft 11 kts 72°
2026-04-25 01:11 -37.00812 174.79367 29 ft 13 kts 71°
2026-04-25 01:11 -37.00780 174.79472 32 ft 12 kts 69°
2026-04-25 01:11 -37.00748 174.79579 32 ft 13 kts 71°
2026-04-25 01:12 -37.00719 174.79688 34 ft 12 kts 71°
2026-04-25 01:12 -37.00690 174.79791 35 ft 13 kts 70°
2026-04-25 01:12 -37.00659 174.79904 35 ft 14 kts 71°
2026-04-25 01:12 -37.00627 174.80022 36 ft 14 kts 71°
2026-04-25 01:13 -37.00594 174.80144 35 ft 15 kts 71°
2026-04-25 01:13 -37.00557 174.80278 35 ft 16 kts 70°
2026-04-25 01:13 -37.00541 174.80417 34 ft 16 kts 120°
2026-04-25 01:13 -37.00625 174.80531 32 ft 15 kts 135°
2026-04-25 01:14 -37.00673 174.80542 32 ft 4 kts 244°
2026-04-25 01:14 -37.00735 174.80313 34 ft 59 kts 251°
2026-04-25 01:14 -37.00938 174.79576 31 ft 119 kts 250°
2026-04-25 01:14 -37.01266 174.78384 136 ft 158 kts 250°
2026-04-25 01:15 -37.01624 174.77116 683 ft 158 kts 249°
2026-04-25 01:15 -37.02004 174.75827 1248 ft 161 kts 252°
2026-04-25 01:15 -37.02116 174.74445 1778 ft 162 kts 274°
2026-04-25 01:15 -37.02243 174.73024 2072 ft 174 kts 241°
2026-04-25 01:16 -37.03206 174.72092 2320 ft 186 kts 191°
2026-04-25 01:16 -37.04539 174.71983 2618 ft 199 kts 182°
2026-04-25 01:16 -37.05978 174.71786 2911 ft 216 kts 189°
2026-04-25 01:16 -37.07539 174.71358 3158 ft 238 kts 194°
2026-04-25 01:17 -37.09172 174.70747 3530 ft 255 kts 197°
2026-04-25 01:17 -37.10318 174.70258 3891 ft 262 kts 198°
2026-04-25 01:17 -37.12594 174.69208 4888 ft 265 kts 199°
2026-04-25 01:17 -37.14324 174.68372 5649 ft 267 kts 200°
2026-04-25 01:18 -37.16065 174.67514 6383 ft 271 kts 200°
2026-04-25 01:18 -37.17803 174.66647 7090 ft 274 kts 200°
2026-04-25 01:18 -37.19590 174.65752 7811 ft 278 kts 200°
2026-04-25 01:18 -37.21397 174.64839 8527 ft 281 kts 200°
2026-04-25 01:19 -37.23198 174.63927 9219 ft 284 kts 200°
2026-04-25 01:19 -37.25044 174.62990 9887 ft 288 kts 200°
2026-04-25 01:19 -37.26917 174.62036 10443 ft 294 kts 200°
2026-04-25 01:19 -37.28876 174.61043 10751 ft 310 kts 200°
2026-04-25 01:20 -37.30922 174.60002 11041 ft 326 kts 200°
2026-04-25 01:20 -37.33075 174.58907 11310 ft 341 kts 200°
2026-04-25 01:20 -37.35327 174.57759 11577 ft 355 kts 200°
2026-04-25 01:20 -37.37666 174.56566 11929 ft 366 kts 200°
2026-04-25 01:21 -37.40033 174.55356 12469 ft 369 kts 200°
2026-04-25 01:21 -37.42432 174.54128 13052 ft 371 kts 200°
2026-04-25 01:21 -37.44804 174.52914 13575 ft 374 kts 200°
2026-04-25 01:21 -37.47220 174.51677 14110 ft 377 kts 199°
2026-04-25 01:22 -37.49663 174.50424 14628 ft 379 kts 200°
2026-04-25 01:22 -37.52136 174.49156 15155 ft 382 kts 200°
2026-04-25 01:22 -37.54590 174.47899 15643 ft 384 kts 199°
2026-04-25 01:22 -37.57075 174.46622 16152 ft 386 kts 199°
2026-04-25 01:23 -37.59583 174.45335 16638 ft 389 kts 199°
2026-04-25 01:23 -37.62077 174.44052 17087 ft 392 kts 199°
2026-04-25 01:23 -37.64602 174.42755 17558 ft 393 kts 199°
2026-04-25 01:23 -37.67149 174.41444 18021 ft 396 kts 199°
2026-04-25 01:24 -37.69720 174.40120 18454 ft 398 kts 199°
2026-04-25 01:24 -37.72287 174.38794 18887 ft 401 kts 199°
2026-04-25 01:24 -37.74855 174.37470 19296 ft 403 kts 199°
2026-04-25 01:24 -37.77468 174.36121 19720 ft 405 kts 199°
2026-04-25 01:25 -37.80097 174.34763 20140 ft 407 kts 199°
2026-04-25 01:25 -37.82697 174.33418 20527 ft 410 kts 199°
2026-04-25 01:25 -37.85371 174.32036 20903 ft 412 kts 199°
2026-04-25 01:25 -37.88038 174.30652 21299 ft 414 kts 199°
2026-04-25 01:26 -37.90678 174.29285 21679 ft 416 kts 199°
2026-04-25 01:26 -37.93379 174.27887 22036 ft 418 kts 199°
2026-04-25 01:26 -37.96061 174.26495 22365 ft 421 kts 199°
2026-04-25 01:26 -37.98792 174.25073 22699 ft 423 kts 199°
2026-04-25 01:27 -38.01530 174.23648 23049 ft 424 kts 199°
2026-04-25 01:27 -38.04269 174.22224 23414 ft 425 kts 199°
2026-04-25 01:27 -38.06984 174.20811 23759 ft 426 kts 199°
2026-04-25 01:28 -38.12514 174.17929 24397 ft 430 kts 199°
2026-04-25 01:28 -38.15276 174.16487 24709 ft 432 kts 199°
2026-04-25 01:28 -38.18059 174.15033 25013 ft 434 kts 199°
2026-04-25 01:28 -38.20872 174.13562 25296 ft 436 kts 199°
2026-04-25 01:29 -38.23666 174.12100 25585 ft 437 kts 199°
2026-04-25 01:29 -38.26465 174.10634 25879 ft 439 kts 199°
2026-04-25 01:29 -38.29317 174.09139 26163 ft 440 kts 199°
2026-04-25 01:29 -38.32165 174.07645 26451 ft 441 kts 199°
2026-04-25 01:30 -38.34997 174.06157 26723 ft 443 kts 199°
2026-04-25 01:30 -38.37840 174.04662 27009 ft 444 kts 199°
2026-04-25 01:30 -38.40700 174.03155 27392 ft 442 kts 199°
2026-04-25 01:30 -38.43561 174.01648 27789 ft 440 kts 199°
2026-04-25 01:31 -38.46371 174.00165 28145 ft 439 kts 199°
2026-04-25 01:31 -38.49224 173.98662 28481 ft 438 kts 199°
2026-04-25 01:31 -38.52020 173.97185 28834 ft 437 kts 199°
2026-04-25 01:31 -38.54854 173.95685 29205 ft 435 kts 199°
2026-04-25 01:32 -38.57624 173.94222 29552 ft 434 kts 199°
2026-04-25 01:32 -38.60434 173.92734 29874 ft 433 kts 198°
2026-04-25 01:32 -38.63230 173.91254 30205 ft 432 kts 198°
2026-04-25 01:32 -38.66004 173.89783 30495 ft 431 kts 198°
2026-04-25 01:33 -38.68780 173.88310 30763 ft 431 kts 198°
2026-04-25 01:33 -38.71549 173.86839 31050 ft 430 kts 198°
2026-04-25 01:33 -38.74326 173.85364 31311 ft 430 kts 199°
2026-04-25 01:33 -38.77121 173.83878 31552 ft 430 kts 199°
2026-04-25 01:34 -38.79890 173.82404 31808 ft 430 kts 199°
2026-04-25 01:34 -38.82682 173.80914 32073 ft 430 kts 199°
2026-04-25 01:34 -38.85404 173.79463 32338 ft 429 kts 199°
2026-04-25 01:34 -38.88178 173.77982 32590 ft 429 kts 199°
2026-04-25 01:35 -38.90955 173.76497 32817 ft 429 kts 199°
2026-04-25 01:35 -38.93711 173.75021 33047 ft 429 kts 199°
2026-04-25 01:35 -38.96494 173.73529 33279 ft 429 kts 199°
2026-04-25 01:35 -38.99216 173.72069 33501 ft 428 kts 199°
2026-04-25 01:36 -39.01976 173.70590 33738 ft 428 kts 199°
2026-04-25 01:36 -39.04732 173.69109 33973 ft 427 kts 199°
2026-04-25 01:36 -39.07467 173.67584 34188 ft 428 kts 200°
2026-04-25 01:36 -39.10169 173.66051 34412 ft 427 kts 200°
2026-04-25 01:37 -39.12903 173.64493 34635 ft 427 kts 200°
2026-04-25 01:37 -39.15626 173.62941 34823 ft 428 kts 200°
2026-04-25 01:37 -39.18344 173.61391 35004 ft 428 kts 200°
2026-04-25 01:37 -39.21053 173.59845 35173 ft 429 kts 200°
2026-04-25 01:38 -39.23797 173.58278 35341 ft 429 kts 200°
2026-04-25 01:38 -39.26537 173.56714 35496 ft 430 kts 200°
2026-04-25 01:38 -39.29266 173.55154 35649 ft 430 kts 200°
2026-04-25 01:38 -39.32023 173.53578 35813 ft 430 kts 200°
2026-04-25 01:39 -39.34752 173.52017 35966 ft 430 kts 200°
2026-04-25 01:39 -39.37506 173.50439 36094 ft 431 kts 201°
2026-04-25 01:39 -39.40234 173.48877 36225 ft 431 kts 201°
2026-04-25 01:39 -39.42991 173.47295 36268 ft 432 kts 201°
2026-04-25 01:40 -39.48509 173.44124 36271 ft 431 kts 201°
2026-04-25 01:40 -39.53977 173.40976 36269 ft 430 kts 201°
2026-04-25 01:41 -39.59473 173.37808 36267 ft 430 kts 201°
2026-04-25 01:41 -39.64955 173.34642 36264 ft 430 kts 201°
2026-04-25 01:42 -39.70425 173.31479 36264 ft 430 kts 201°
2026-04-25 01:42 -39.75914 173.28297 36270 ft 430 kts 201°
2026-04-25 01:43 -39.81387 173.25120 36265 ft 429 kts 201°
2026-04-25 01:43 -39.86842 173.21948 36264 ft 428 kts 201°
2026-04-25 01:44 -39.92306 173.18767 36261 ft 428 kts 201°
2026-04-25 01:44 -39.97767 173.15581 36266 ft 428 kts 201°
2026-04-25 01:45 -40.03205 173.12401 36259 ft 428 kts 201°
2026-04-25 01:45 -40.08640 173.09219 36258 ft 427 kts 201°
2026-04-25 01:46 -40.14088 173.06023 36264 ft 427 kts 201°
2026-04-25 01:46 -40.19496 173.02844 36264 ft 426 kts 201°
2026-04-25 01:47 -40.24884 172.99674 36260 ft 426 kts 201°
2026-04-25 01:47 -40.30288 172.96487 36263 ft 425 kts 201°
2026-04-25 01:48 -40.35690 172.93297 36257 ft 425 kts 201°
2026-04-25 01:48 -40.41061 172.90118 36255 ft 425 kts 201°
2026-04-25 01:49 -40.46485 172.86905 36255 ft 425 kts 201°
2026-04-25 01:49 -40.51867 172.83707 36255 ft 425 kts 201°
2026-04-25 01:50 -40.57255 172.80501 36259 ft 424 kts 201°
2026-04-25 01:50 -40.62642 172.77290 36253 ft 425 kts 201°
2026-04-25 01:51 -40.68014 172.74085 36251 ft 424 kts 201°
2026-04-25 01:51 -40.73379 172.70875 36259 ft 423 kts 201°
2026-04-25 01:52 -40.78721 172.67674 36252 ft 423 kts 201°
2026-04-25 01:52 -40.84050 172.64476 36248 ft 423 kts 202°
2026-04-25 01:53 -40.89399 172.61258 36247 ft 422 kts 201°
2026-04-25 01:53 -40.94770 172.58022 36250 ft 423 kts 201°
2026-04-25 01:54 -41.00122 172.54794 36241 ft 423 kts 201°
2026-04-25 01:54 -41.05470 172.51562 36244 ft 423 kts 201°
2026-04-25 01:55 -41.10803 172.48335 36244 ft 422 kts 202°
2026-04-25 01:55 -41.16134 172.45100 36239 ft 421 kts 202°
2026-04-25 01:56 -41.21483 172.41849 36245 ft 422 kts 202°
2026-04-25 01:56 -41.26817 172.38602 36248 ft 421 kts 202°
2026-04-25 01:57 -41.34815 172.33719 36246 ft 420 kts 202°
2026-04-25 01:58 -41.40122 172.30475 36243 ft 421 kts 202°
2026-04-25 01:58 -41.45448 172.27212 36242 ft 420 kts 203°
2026-04-25 01:59 -41.50747 172.23958 36242 ft 420 kts 203°
2026-04-25 01:59 -41.56068 172.20686 36241 ft 420 kts 203°
2026-04-25 02:00 -41.61369 172.17421 36240 ft 420 kts 203°
2026-04-25 02:00 -41.66657 172.14157 36240 ft 420 kts 203°
2026-04-25 02:01 -41.71970 172.10873 36245 ft 420 kts 203°
2026-04-25 02:01 -41.77255 172.07599 36241 ft 420 kts 203°
2026-04-25 02:02 -41.82555 172.04309 36242 ft 419 kts 203°
2026-04-25 02:02 -41.87862 172.01009 36236 ft 418 kts 204°
2026-04-25 02:03 -41.93123 171.97733 36233 ft 418 kts 204°
2026-04-25 02:03 -41.98394 171.94446 36228 ft 418 kts 204°
2026-04-25 02:04 -42.03653 171.91156 36230 ft 418 kts 204°
2026-04-25 02:04 -42.08919 171.87859 36235 ft 419 kts 204°
2026-04-25 02:05 -42.14187 171.84552 36248 ft 418 kts 204°
2026-04-25 02:05 -42.19467 171.81233 36259 ft 418 kts 204°
2026-04-25 02:06 -42.24736 171.77916 36261 ft 417 kts 204°
2026-04-25 02:06 -42.29978 171.74608 36262 ft 417 kts 204°
2026-04-25 02:07 -42.35223 171.71294 36260 ft 417 kts 204°
2026-04-25 02:07 -42.40471 171.67969 36256 ft 416 kts 204°
2026-04-25 02:08 -42.45719 171.64638 36254 ft 416 kts 204°
2026-04-25 02:08 -42.50940 171.61320 36254 ft 416 kts 205°
2026-04-25 02:09 -42.56182 171.57982 36256 ft 416 kts 205°
2026-04-25 02:09 -42.61442 171.54627 36252 ft 416 kts 205°
2026-04-25 02:10 -42.66648 171.51300 36252 ft 416 kts 205°
2026-04-25 02:10 -42.71867 171.47955 36249 ft 415 kts 205°
2026-04-25 02:11 -42.77101 171.44597 36253 ft 415 kts 205°
2026-04-25 02:11 -42.82329 171.41237 36254 ft 416 kts 205°
2026-04-25 02:12 -42.87544 171.37878 36251 ft 415 kts 206°
2026-04-25 02:12 -42.92761 171.34511 36245 ft 416 kts 206°
2026-04-25 02:13 -42.97987 171.31137 36251 ft 415 kts 206°
2026-04-25 02:13 -43.03211 171.27754 36267 ft 415 kts 206°
2026-04-25 02:14 -43.08431 171.24368 36265 ft 414 kts 206°
2026-04-25 02:14 -43.13613 171.20999 36248 ft 414 kts 207°
2026-04-25 02:15 -43.18872 171.17570 36242 ft 415 kts 207°
2026-04-25 02:15 -43.24101 171.14157 36239 ft 415 kts 207°
2026-04-25 02:16 -43.29297 171.10759 36234 ft 415 kts 207°
2026-04-25 02:16 -43.34515 171.07336 36235 ft 415 kts 207°
2026-04-25 02:17 -43.39741 171.03903 36241 ft 414 kts 207°
2026-04-25 02:17 -43.44945 171.00491 36254 ft 414 kts 206°
2026-04-25 02:18 -43.50322 170.97572 36263 ft 416 kts 200°
2026-04-25 02:18 -43.55910 170.95442 36254 ft 418 kts 195°
2026-04-25 02:19 -43.61616 170.93755 36239 ft 418 kts 195°
2026-04-25 02:19 -43.67323 170.92093 36232 ft 419 kts 195°
2026-04-25 02:20 -43.72985 170.90442 36232 ft 418 kts 195°
2026-04-25 02:20 -43.78701 170.88768 36233 ft 418 kts 195°
2026-04-25 02:21 -43.84383 170.87099 36221 ft 418 kts 195°
2026-04-25 02:21 -43.90095 170.85419 36210 ft 418 kts 195°
2026-04-25 02:22 -43.95816 170.83733 36207 ft 419 kts 195°
2026-04-25 02:22 -44.01529 170.82045 36205 ft 419 kts 195°
2026-04-25 02:23 -44.07262 170.80345 36203 ft 419 kts 195°
2026-04-25 02:23 -44.12994 170.78644 36195 ft 420 kts 196°
2026-04-25 02:24 -44.18702 170.76944 36192 ft 420 kts 196°
2026-04-25 02:24 -44.24310 170.74844 36187 ft 416 kts 201°
2026-04-25 02:25 -44.29725 170.71925 36193 ft 414 kts 207°
2026-04-25 02:25 -44.34982 170.68668 36192 ft 413 kts 207°
2026-04-25 02:26 -44.40245 170.65379 36198 ft 413 kts 207°
2026-04-25 02:26 -44.45506 170.62091 36201 ft 414 kts 207°
2026-04-25 02:27 -44.50793 170.58781 36203 ft 413 kts 207°
2026-04-25 02:27 -44.56050 170.55482 36199 ft 414 kts 207°
2026-04-25 02:28 -44.61286 170.52188 36201 ft 413 kts 207°
2026-04-25 02:28 -44.66554 170.48869 36196 ft 414 kts 207°
2026-04-25 02:29 -44.71786 170.45566 36193 ft 414 kts 208°
2026-04-25 02:29 -44.77074 170.42223 36193 ft 414 kts 208°
2026-04-25 02:30 -44.82305 170.38907 36192 ft 414 kts 208°
2026-04-25 02:30 -44.87592 170.35550 36192 ft 414 kts 208°
2026-04-25 02:31 -44.92828 170.32219 36194 ft 413 kts 208°
2026-04-25 02:31 -44.98052 170.28889 36190 ft 413 kts 209°
2026-04-25 02:32 -45.03264 170.25562 36187 ft 413 kts 209°
2026-04-25 02:32 -45.08509 170.22203 36187 ft 414 kts 209°
2026-04-25 02:33 -45.13750 170.18842 36185 ft 413 kts 209°
2026-04-25 02:33 -45.18999 170.15466 36183 ft 414 kts 209°
2026-04-25 02:34 -45.24225 170.12102 36183 ft 413 kts 209°
2026-04-25 02:34 -45.29461 170.08719 36181 ft 412 kts 209°
2026-04-25 02:35 -45.34707 170.05324 36178 ft 412 kts 209°
2026-04-25 02:35 -45.39922 170.01877 36182 ft 411 kts 212°
2026-04-25 02:36 -45.44793 169.97691 36190 ft 407 kts 219°
2026-04-25 02:36 -45.49176 169.92630 36193 ft 402 kts 227°
2026-04-25 02:37 -45.53006 169.86816 36189 ft 400 kts 232°
2026-04-25 02:37 -45.56571 169.80743 36183 ft 400 kts 233°
2026-04-25 02:38 -45.60113 169.74663 36093 ft 396 kts 233°
2026-04-25 02:38 -45.61858 169.71669 35213 ft 392 kts 233°
2026-04-25 02:38 -45.63593 169.68680 33522 ft 401 kts 233°
2026-04-25 02:38 -45.65366 169.65620 31561 ft 415 kts 233°
2026-04-25 02:39 -45.67191 169.62465 29616 ft 423 kts 232°
2026-04-25 02:39 -45.69046 169.59262 28659 ft 415 kts 232°
2026-04-25 02:39 -45.70868 169.56117 28318 ft 413 kts 232°
2026-04-25 02:39 -45.72715 169.52925 27793 ft 415 kts 232°
2026-04-25 02:40 -45.74562 169.49725 27139 ft 419 kts 232°
2026-04-25 02:40 -45.76399 169.46541 26465 ft 416 kts 232°
2026-04-25 02:40 -45.78255 169.43318 25975 ft 414 kts 232°
2026-04-25 02:40 -45.80074 169.40158 25468 ft 411 kts 232°
2026-04-25 02:41 -45.81870 169.37033 24968 ft 408 kts 232°
2026-04-25 02:41 -45.83659 169.33916 24435 ft 405 kts 233°
2026-04-25 02:41 -45.85451 169.30791 23892 ft 401 kts 233°
2026-04-25 02:41 -45.87187 169.27759 23377 ft 398 kts 233°
2026-04-25 02:42 -45.88929 169.24713 22858 ft 394 kts 233°
2026-04-25 02:42 -45.90103 169.22661 22504 ft 392 kts 233°
2026-04-25 02:42 -45.92373 169.18687 21833 ft 386 kts 233°
2026-04-25 02:42 -45.94065 169.15718 21320 ft 383 kts 233°
2026-04-25 02:43 -45.95741 169.12778 20792 ft 380 kts 233°
2026-04-25 02:43 -45.97407 169.09848 20253 ft 378 kts 233°
2026-04-25 02:43 -45.99052 169.06953 19742 ft 375 kts 233°
2026-04-25 02:43 -46.00691 169.04068 19250 ft 373 kts 233°
2026-04-25 02:44 -46.02317 169.01202 18743 ft 370 kts 233°
2026-04-25 02:44 -46.03928 168.98360 18229 ft 367 kts 234°
2026-04-25 02:44 -46.05533 168.95522 17718 ft 365 kts 234°
2026-04-25 02:44 -46.07130 168.92693 17190 ft 362 kts 233°
2026-04-25 02:45 -46.08723 168.89871 16678 ft 360 kts 234°
2026-04-25 02:45 -46.09755 168.88045 16351 ft 358 kts 233°
2026-04-25 02:45 -46.11834 168.84355 15679 ft 355 kts 233°
2026-04-25 02:45 -46.13383 168.81607 15179 ft 352 kts 233°
2026-04-25 02:46 -46.14918 168.78876 14677 ft 349 kts 233°
2026-04-25 02:46 -46.16439 168.76169 14154 ft 348 kts 233°
2026-04-25 02:46 -46.17964 168.73454 13648 ft 345 kts 233°
2026-04-25 02:46 -46.19466 168.70778 13158 ft 343 kts 233°
2026-04-25 02:47 -46.20954 168.68121 12658 ft 341 kts 233°
2026-04-25 02:47 -46.21942 168.66359 12323 ft 340 kts 233°
2026-04-25 02:47 -46.23902 168.62854 11640 ft 338 kts 233°
2026-04-25 02:47 -46.25372 168.60225 11241 ft 331 kts 234°
2026-04-25 02:48 -46.26791 168.57689 10968 ft 321 kts 234°
2026-04-25 02:48 -46.28179 168.55203 10796 ft 310 kts 234°
2026-04-25 02:48 -46.29503 168.52828 10645 ft 298 kts 234°
2026-04-25 02:48 -46.30772 168.50546 10472 ft 288 kts 234°
2026-04-25 02:49 -46.32010 168.48318 10299 ft 278 kts 234°
2026-04-25 02:49 -46.32810 168.46881 10229 ft 271 kts 234°
2026-04-25 02:49 -46.33960 168.44812 10034 ft 264 kts 234°
2026-04-25 02:49 -46.35489 168.42050 9639 ft 259 kts 234°
2026-04-25 02:50 -46.36603 168.40031 9260 ft 259 kts 234°
2026-04-25 02:50 -46.37360 168.38663 9005 ft 259 kts 234°
2026-04-25 02:50 -46.38474 168.36652 8742 ft 255 kts 234°
2026-04-25 02:50 -46.39935 168.34016 8380 ft 250 kts 235°
2026-04-25 02:51 -46.41016 168.32060 8015 ft 250 kts 235°
2026-04-25 02:51 -46.42300 168.30344 7656 ft 258 kts 216°
2026-04-25 02:51 -46.43420 168.29675 7460 ft 264 kts 201°
2026-04-25 02:51 -46.45232 168.29305 7142 ft 268 kts 195°
2026-04-25 02:52 -46.47700 168.28906 6735 ft 265 kts 194°
2026-04-25 02:52 -46.49535 168.28610 6481 ft 261 kts 194°
2026-04-25 02:52 -46.50733 168.28418 6322 ft 258 kts 195°
2026-04-25 02:52 -46.53003 168.27774 5944 ft 242 kts 215°
2026-04-25 02:53 -46.54117 168.26091 5568 ft 229 kts 250°
2026-04-25 02:53 -46.54314 168.24597 5343 ft 228 kts 268°
2026-04-25 02:53 -46.54148 168.21550 4943 ft 228 kts 276°
2026-04-25 02:53 -46.53809 168.19292 4636 ft 228 kts 284°
2026-04-25 02:54 -46.53210 168.17158 4434 ft 226 kts 293°
2026-04-25 02:54 -46.52383 168.15233 4234 ft 225 kts 301°
2026-04-25 02:54 -46.51270 168.13619 3992 ft 232 kts 325°
2026-04-25 02:54 -46.49691 168.12984 3648 ft 239 kts 344°
2026-04-25 02:55 -46.48035 168.12801 3292 ft 241 kts 353°
2026-04-25 02:55 -46.46410 168.13467 2968 ft 252 kts 28°
2026-04-25 02:55 -46.45299 168.15453 2363 ft 258 kts 69°
2026-04-25 02:55 -46.45058 168.17097 2100 ft 252 kts 80°
2026-04-25 02:56 -46.44804 168.19562 1728 ft 239 kts 73°
2026-04-25 02:56 -46.44221 168.22501 1307 ft 220 kts 65°
2026-04-25 02:56 -46.43859 168.23839 1190 ft 206 kts 63°
2026-04-25 02:56 -46.43127 168.26244 808 ft 187 kts 62°
2026-04-25 02:57 -46.42595 168.27902 537 ft 174 kts 61°
2026-04-25 02:57 -46.42265 168.28928 381 ft 165 kts 61°
2026-04-25 02:57 -46.41646 168.30850 342 ft 150 kts 61°
2026-04-25 02:57 -46.41225 168.32188 988 ft 147 kts 58°
2026-04-25 02:58 -46.40926 168.33092 1331 ft 154 kts 57°
2026-04-25 02:58 -46.40471 168.34538 1694 ft 165 kts 57°
2026-04-25 02:58 -46.39778 168.36626 2064 ft 182 kts 57°
2026-04-25 02:58 -46.39390 168.37766 2253 ft 191 kts 58°
2026-04-25 02:59 -46.38808 168.39542 2545 ft 205 kts 64°
2026-04-25 02:59 -46.38728 168.41667 2773 ft 225 kts 110°
2026-04-25 02:59 -46.39660 168.43459 2820 ft 224 kts 155°
2026-04-25 02:59 -46.41574 168.43730 2788 ft 212 kts 206°
2026-04-25 03:00 -46.42521 168.43294 2773 ft 212 kts 206°
2026-04-25 03:00 -46.43947 168.42677 2802 ft 214 kts 205°
2026-04-25 03:00 -46.45402 168.42117 2813 ft 215 kts 203°
2026-04-25 03:00 -46.46847 168.41608 2818 ft 215 kts 202°
2026-04-25 03:01 -46.48328 168.41113 2823 ft 216 kts 202°
2026-04-25 03:01 -46.49760 168.40657 2802 ft 202 kts 201°
2026-04-25 03:01 -46.51084 168.40248 2869 ft 188 kts 202°
2026-04-25 03:01 -46.52305 168.39876 2839 ft 168 kts 204°
2026-04-25 03:02 -46.53380 168.39552 2791 ft 151 kts 205°
2026-04-25 03:02 -46.54402 168.39221 2808 ft 149 kts 205°
2026-04-25 03:02 -46.55403 168.38898 2814 ft 148 kts 206°
2026-04-25 03:02 -46.56731 168.38464 2819 ft 143 kts 211°
2026-04-25 03:03 -46.57276 168.37997 2799 ft 130 kts 244°
2026-04-25 03:03 -46.57481 168.36696 2861 ft 141 kts 270°
2026-04-25 03:03 -46.57544 168.35257 2844 ft 144 kts 264°
2026-04-25 03:03 -46.57674 168.33810 2832 ft 144 kts 265°
2026-04-25 03:04 -46.57748 168.32358 2838 ft 144 kts 268°
2026-04-25 03:04 -46.57755 168.30917 2838 ft 144 kts 270°
2026-04-25 03:04 -46.57701 168.29454 2828 ft 144 kts 274°
2026-04-25 03:05 -46.57404 168.26579 2824 ft 144 kts 280°
2026-04-25 03:05 -46.57158 168.25154 2833 ft 144 kts 282°
2026-04-25 03:05 -46.56854 168.23758 2831 ft 144 kts 285°
2026-04-25 03:05 -46.56496 168.22403 2819 ft 144 kts 288°
2026-04-25 03:06 -46.56083 168.21074 2819 ft 144 kts 291°
2026-04-25 03:06 -46.55614 168.19789 2819 ft 144 kts 294°
2026-04-25 03:06 -46.55091 168.18539 2825 ft 143 kts 297°
2026-04-25 03:06 -46.54523 168.17357 2825 ft 143 kts 300°
2026-04-25 03:07 -46.53898 168.16206 2828 ft 143 kts 303°
2026-04-25 03:07 -46.53230 168.15123 2819 ft 143 kts 307°
2026-04-25 03:07 -46.52523 168.14107 2821 ft 143 kts 311°
2026-04-25 03:07 -46.51678 168.13325 2812 ft 146 kts 328°
2026-04-25 03:08 -46.50683 168.13007 2804 ft 148 kts 343°
2026-04-25 03:08 -46.49653 168.12912 2812 ft 148 kts 346°
2026-04-25 03:08 -46.48627 168.12849 2798 ft 148 kts 346°
2026-04-25 03:08 -46.47585 168.12975 2703 ft 161 kts 13°
2026-04-25 03:09 -46.46776 168.14188 2503 ft 171 kts 54°
2026-04-25 03:09 -46.46311 168.15739 2273 ft 165 kts 62°
2026-04-25 03:09 -46.45907 168.17285 2052 ft 162 kts 61°
2026-04-25 03:09 -46.45491 168.18787 1842 ft 160 kts 59°
2026-04-25 03:10 -46.44897 168.20755 1558 ft 158 kts 57°
2026-04-25 03:10 -46.44590 168.21722 1421 ft 156 kts 58°
2026-04-25 03:10 -46.44138 168.23126 1220 ft 152 kts 58°
2026-04-25 03:10 -46.43692 168.24501 1016 ft 148 kts 59°
2026-04-25 03:11 -46.43259 168.25832 819 ft 144 kts 60°
2026-04-25 03:11 -46.42850 168.27138 603 ft 142 kts 61°
2026-04-25 03:11 -46.42311 168.28838 312 ft 137 kts 60°
2026-04-25 03:11 -46.42041 168.29643 152 ft 136 kts 61°
2026-04-25 03:12 -46.41646 168.30843 10 ft 125 kts 63°
2026-04-25 03:12 -46.41341 168.31770 9 ft 63 kts 65°
2026-04-25 03:12 -46.41226 168.32134 9 ft 32 kts 65°
2026-04-25 03:12 -46.41140 168.32405 9 ft 18 kts 83°
2026-04-25 03:13 -46.41120 168.32451 9 ft 5 kts 285°
2026-04-25 03:13 -46.41162 168.32318 9 ft 20 kts 244°
2026-04-25 03:13 -46.41222 168.32129 9 ft 20 kts 246°
2026-04-25 03:13 -46.41299 168.31999 9 ft 13 kts 165°
2026-04-25 03:14 -46.41386 168.32060 9 ft 14 kts 156°
2026-04-25 03:14 -46.41454 168.32101 9 ft 5 kts 170°
2026-04-25 03:14 -46.41489 168.32111 9 ft 2 kts 158°
2026-04-25 03:14 -46.41515 168.32118 9 ft 4 kts 162°
2026-04-25 03:15 -46.41519 168.32152 9 ft 0 kts
2026-04-25 03:15 -46.41518 168.32152 9 ft 0 kts 346°
2026-04-25 03:15 -46.41518 168.32150 9 ft 0 kts 334°